AirNav   Pilot Hours Calculator
 
 1433 users online  

OR02 River Run Ranch Airport
Redmond, Oregon, USA

GOING TO REDMOND?


FAA INFORMATION EFFECTIVE 25 APRIL 2019

Location

FAA Identifier: OR02
Lat/Long: 44-20-08.4410N / 121-01-12.1040W
44-20.140683N / 121-01.201733W
44.3356781 / -121.0200289
(estimated)
Elevation: 2600 ft. / 792 m (estimated)
Variation: 18E (1985)
From city: 8 miles NE of REDMOND, OR
Time zone: UTC -7 (UTC -8 during Standard Time)
Zip code: 97754

Airport Operations

Airport use: CLOSED INDEFINITELY, PERSONAL USE.
Activation date: 07/1988
Control tower: no
ARTCC: SEATTLE CENTER
FSS: MC MINNVILLE FLIGHT SERVICE STATION
Attendance: UNATNDD
Segmented circle: no

Airport Communications

WX AWOS-3PT at S39 (6 nm SE): 118.325 (541-447-4060)
WX ASOS at RDM (7 nm SW): 119.025 (541-504-8743)
WX AWOS-3 at BDN (16 nm SW): 134.425 (541-382-1477)

Nearby radio navigation aids

VOR radial/distance  VOR name  Freq  Var
DSDr050/13.2DESCHUTES VORTAC117.6018E

Airport Services

Runway Information

Runway 9/27

Dimensions: 2500 x 25 ft. / 762 x 8 m
Surface: dirt
RUNWAY 9  RUNWAY 27
Traffic pattern: leftleft

Airport Ownership and Management from official FAA records

Ownership: Privately-owned
Owner: LORRY TOGNOLI
13223 NE O'NEIL HWY
REDMOND, OR 97756
Phone 541-815-0461

Additional Remarks

(ARPT STATUS) ARPT CLSD INDEFLY.

Instrument Procedures

There are no published instrument procedures at OR02.

Some nearby airports with instrument procedures:

S39 - Prineville Airport (6 nm SE)
KRDM - Roberts Field Airport (7 nm SW)
KBDN - Bend Municipal Airport (16 nm SW)
S33 - Madras Municipal Airport (21 nm N)
S21 - Sunriver Airport (33 nm SW)
 
Loc | Ops | Rwys | IFR | FBO | Links
Com | Nav | Svcs | Stats | Notes
Area around OR02 (River Run Ranch Airport)
 
Road maps at: MapQuest Bing Google
 
Aerial photo
WARNING: Photo may not be current or correct
Aerial photo of OR02 (River Run Ranch Airport)
Do you have a better or more recent aerial photo of River Run Ranch Airport that you would like to share? If so, please send us your photo.

 
Sectional chart

 
Airport distance calculator
Flying to River Run Ranch Airport? Find the distance to fly.

From to OR02

Sunrise and sunset
Times for 26-Apr-2019
 Local
(UTC-7)
 Zulu
(UTC)
Morning civil twilight05:3212:32
Sunrise06:0313:03
Sunset20:0103:01
Evening civil twilight20:3203:32

Current date and time
Zulu (UTC)  26-Apr-2019 16:51:39
Local (UTC-7)  26-Apr-2019 09:51:39
 
METAR
KS39 
6nm SE 
261635Z AUTO VRB06KT 10SM CLR 12/M04 A3014 RMK AO2
KRDM 
8nm SW 
261556Z 31008KT 10SM CLR 13/M02 A3012 RMK AO2 SLP190 T01281022
KBDN 
16nm SW 
261635Z AUTO 32005G10KT 10SM CLR 13/M07 A3013 RMK AO2
TAF
KRDM 
8nm SW 
261120Z 2612/2712 VRB04KT P6SM SCT100 FM261800 33014G21KT P6SM FEW250 FM270400 32004KT P6SM BKN250 FM270900 17003KT P6SM SCT250
KBDN 
16nm SW 
261120Z 2612/2712 VRB04KT P6SM SCT100 FM261900 34010G18KT P6SM FEW250 FM270300 VRB04KT P6SM SCT250 FM270900 21003KT P6SM SCT250
NOTAMs
Click for the latest NOTAMs
NOTAMs are issued by the DoD/FAA and will open in a separate window not controlled by AirNav.

 

 
 

Would you like to see your business listed on this page?

 If your business provides an interesting product or service to pilots, flight crews, aircraft, or users of the River Run Ranch Airport, you should consider listing it here.  To start the listing process, click on the button below
 
Add a business
 

Other Pages about River Run Ranch Airport

Update a link
 
Copyright © AirNav, LLC. All rights reserved. Privacy Policy  Contact